Indiana, PA

1:16 AM EDT on April 29, 2017 (GMT -0400)
Indiana County-Stewart

Weather History for KIDI - February, 2013

Change the Weather History Date:

Thursday, February 28, 2013

  Actual Average Record
Temperature  
Mean Temperature 32 °F -  
Max Temperature 33 °F 43 °F 65 °F (1954)
Min Temperature 30 °F 24 °F -9 °F (2015)
Degree Days  
Heating Degree Days 34    
Moisture  
Dew Point 32 °F    
Average Humidity 100    
Maximum Humidity 100    
Minimum Humidity 93    
Precipitation  
Precipitation 0.01 in - - ()
Sea Level Pressure  
Sea Level Pressure 29.64 in    
Wind  
Wind Speed 8 mph (West)    
Max Wind Speed 10 mph    
Max Gust Speed 16 mph    
Visibility 7 miles    
Events      
Averages and records for this station are not official NWS values.
T = Trace of Precipitation, MM = Missing Value Source: NWS Daily Summary

Daily Weather History Graph

Daily Weather History Graph

Search for Another Location

Airport or City:

Trip Planner

Search our weather history database for the weather conditions in past years. The results will help you decide how hot, cold, wet, or windy it might be!

Date:

Astronomy

Feb. 28, 2013 Rise Set
Actual Time 6:51 AM EST 6:06 PM EST
Civil Twilight 6:24 AM EST 6:34 PM EST
Nautical Twilight 5:52 AM EST 7:06 PM EST
Astronomical Twilight 5:20 AM EST 7:37 PM EST
Moon 9:33 PM EST (2/28) 7:58 AM EST (2/28)
Length of Visible Light 12h 10m
Length of Day
11h 15m
Waning Gibbous, 91% of the Moon is Illuminated
Feb 28
Waning Gibbous
Mar 4
Last Quarter
Mar 11
New
Mar 19
First Quarter
Mar 27
Full

Hourly Weather History & Observations

Time (EST) Temp. Windchill Dew Point Humidity Pressure Visibility Wind Dir Wind Speed Gust Speed Precip Events Conditions
12:15 AM 33.8 °F 27.7 °F 33.8 °F 100% 29.62 in 10.0 mi West 6.9 mph - N/A   Unknown
12:35 AM 33.8 °F 27.0 °F 33.8 °F 100% 29.62 in 10.0 mi West 8.1 mph - N/A   Unknown
1:15 AM 32.0 °F 24.2 °F 32.0 °F 100% 29.62 in 10.0 mi West 9.2 mph - N/A   Unknown
1:35 AM 32.0 °F 26.4 °F 32.0 °F 100% 29.62 in 7.0 mi WSW 5.8 mph - N/A   Unknown
1:55 AM 32.0 °F 26.4 °F 32.0 °F 100% 29.62 in 7.0 mi West 5.8 mph - N/A   Unknown
2:15 AM 32.0 °F 26.4 °F 32.0 °F 100% 29.62 in 10.0 mi WSW 5.8 mph - N/A   Unknown
2:35 AM 32.0 °F 23.6 °F 32.0 °F 100% 29.61 in 7.0 mi WSW 10.4 mph - N/A   Unknown
2:55 AM 32.0 °F 23.6 °F 32.0 °F 100% 29.61 in 10.0 mi West 10.4 mph - N/A   Unknown
3:15 AM 32.0 °F 24.8 °F 32.0 °F 100% 29.61 in 10.0 mi West 8.1 mph 16.1 mph N/A   Unknown
3:35 AM 32.0 °F 24.2 °F 32.0 °F 100% 29.60 in 10.0 mi West 9.2 mph - N/A   Unknown
3:55 AM 32.0 °F 25.6 °F 32.0 °F 100% 29.60 in 10.0 mi West 6.9 mph - N/A   Unknown
4:15 AM 32.0 °F 24.8 °F 32.0 °F 100% 29.60 in 10.0 mi West 8.1 mph - N/A   Unknown
4:55 AM 30.2 °F 21.9 °F 30.2 °F 100% 29.60 in 10.0 mi WSW 9.2 mph - N/A   Unknown
5:15 AM 30.2 °F 24.3 °F 30.2 °F 100% 29.60 in 7.0 mi WSW 5.8 mph - N/A   Unknown
5:35 AM 30.2 °F 23.4 °F 30.2 °F 100% 29.60 in 7.0 mi SW 6.9 mph - N/A   Unknown
5:55 AM 30.2 °F 24.3 °F 30.2 °F 100% 29.60 in 10.0 mi WSW 5.8 mph - N/A   Unknown
6:15 AM 30.2 °F 23.4 °F 30.2 °F 100% 29.60 in 7.0 mi WSW 6.9 mph - N/A   Unknown
6:35 AM 30.2 °F 23.4 °F 30.2 °F 100% 29.60 in 4.0 mi WSW 6.9 mph - N/A   Unknown
6:55 AM 30.2 °F 24.3 °F 30.2 °F 100% 29.60 in 4.0 mi SW 5.8 mph - N/A   Unknown
7:15 AM 30.2 °F 24.3 °F 30.2 °F 100% 29.60 in 10.0 mi WSW 5.8 mph - N/A   Unknown
7:35 AM 30.2 °F 23.4 °F 30.2 °F 100% 29.60 in 10.0 mi WSW 6.9 mph - N/A   Unknown
7:55 AM 30.2 °F 24.3 °F 30.2 °F 100% 29.60 in 10.0 mi WSW 5.8 mph - N/A   Unknown
8:15 AM 30.2 °F 23.4 °F 30.2 °F 100% 29.60 in 10.0 mi WSW 6.9 mph - N/A   Unknown
8:35 AM 30.2 °F 24.3 °F 30.2 °F 100% 29.61 in 3.0 mi WSW 5.8 mph - N/A   Unknown
8:55 AM 30.2 °F 23.4 °F 30.2 °F 100% 29.61 in 7.0 mi West 6.9 mph - N/A   Unknown
9:15 AM 30.2 °F 22.6 °F 30.2 °F 100% 29.61 in 10.0 mi WSW 8.1 mph - N/A   Unknown
9:35 AM 30.2 °F 22.6 °F 30.2 °F 100% 29.61 in 10.0 mi West 8.1 mph - N/A   Unknown
9:55 AM 32.0 °F 23.6 °F 32.0 °F 100% 29.61 in 10.0 mi West 10.4 mph - N/A   Unknown
10:15 AM 32.0 °F 24.2 °F 30.2 °F 93% 29.62 in 10.0 mi West 9.2 mph - N/A   Unknown
10:35 AM 32.0 °F 23.6 °F 30.2 °F 93% 29.62 in 10.0 mi WSW 10.4 mph - N/A   Unknown
10:55 AM 32.0 °F 24.2 °F 30.2 °F 93% 29.62 in 7.0 mi WSW 9.2 mph - N/A   Unknown
11:15 AM 30.2 °F 21.9 °F 30.2 °F 100% 29.62 in 3.0 mi West 9.2 mph - N/A   Unknown
11:35 AM 30.2 °F 21.3 °F 30.2 °F 100% 29.62 in 3.0 mi WSW 10.4 mph - N/A   Unknown
11:55 AM 32.0 °F 24.2 °F 32.0 °F 100% 29.62 in 5.0 mi WSW 9.2 mph - N/A   Unknown
12:15 PM 32.0 °F 24.2 °F 32.0 °F 100% 29.62 in 5.0 mi WSW 9.2 mph - N/A   Unknown
12:55 PM 32.0 °F 24.2 °F 32.0 °F 100% 29.62 in 1.8 mi WSW 9.2 mph - N/A   Unknown
1:15 PM 32.0 °F 24.8 °F 32.0 °F 100% 29.61 in 1.8 mi WSW 8.1 mph - N/A   Unknown
1:35 PM 32.0 °F 24.2 °F 32.0 °F 100% 29.62 in 1.2 mi West 9.2 mph - N/A   Unknown
1:55 PM 32.0 °F 23.6 °F 32.0 °F 100% 29.61 in 2.5 mi WSW 10.4 mph - N/A   Unknown
2:15 PM 32.0 °F 24.8 °F 32.0 °F 100% 29.61 in 1.2 mi WSW 8.1 mph - N/A   Unknown
2:35 PM 32.0 °F 24.2 °F 32.0 °F 100% 29.61 in 2.5 mi West 9.2 mph - N/A   Unknown
2:55 PM 32.0 °F 24.2 °F 32.0 °F 100% 29.61 in 3.0 mi West 9.2 mph - N/A   Unknown
3:15 PM 32.0 °F 24.2 °F 32.0 °F 100% 29.62 in 3.0 mi West 9.2 mph 16.1 mph N/A   Unknown
3:35 PM 32.0 °F 24.2 °F 32.0 °F 100% 29.62 in 4.0 mi West 9.2 mph - 0.01 in   Unknown
3:55 PM 32.0 °F 24.8 °F 32.0 °F 100% 29.62 in 2.5 mi West 8.1 mph 16.1 mph 0.01 in   Unknown
4:35 PM 32.0 °F 24.2 °F 32.0 °F 100% 29.63 in 4.0 mi West 9.2 mph - N/A   Unknown
4:55 PM 32.0 °F 26.4 °F 32.0 °F 100% 29.64 in 5.0 mi West 5.8 mph - N/A   Unknown
5:15 PM 32.0 °F 24.8 °F 32.0 °F 100% 29.64 in 5.0 mi West 8.1 mph - N/A   Unknown
5:35 PM 32.0 °F 24.8 °F 32.0 °F 100% 29.65 in 10.0 mi West 8.1 mph - N/A   Unknown
5:55 PM 32.0 °F 24.8 °F 32.0 °F 100% 29.66 in 10.0 mi West 8.1 mph - N/A   Unknown
6:15 PM 32.0 °F 23.6 °F 32.0 °F 100% 29.67 in 7.0 mi WNW 10.4 mph 16.1 mph N/A   Unknown
6:35 PM 32.0 °F 26.4 °F 32.0 °F 100% 29.67 in 5.0 mi WNW 5.8 mph - N/A   Unknown
7:15 PM 32.0 °F 26.4 °F 32.0 °F 100% 29.69 in 10.0 mi WNW 5.8 mph - N/A   Unknown
7:35 PM 33.8 °F 27.7 °F 33.8 °F 100% 29.70 in 10.0 mi WNW 6.9 mph - N/A   Unknown
8:15 PM 33.8 °F 28.6 °F 33.8 °F 100% 29.71 in 7.0 mi WNW 5.8 mph - N/A   Unknown
8:35 PM 32.0 °F 25.6 °F 32.0 °F 100% 29.72 in 10.0 mi NW 6.9 mph - N/A   Unknown
8:55 PM 32.0 °F 24.8 °F 32.0 °F 100% 29.72 in 10.0 mi WNW 8.1 mph 16.1 mph N/A   Unknown
9:15 PM 32.0 °F 24.8 °F 32.0 °F 100% 29.73 in 10.0 mi WNW 8.1 mph - N/A   Unknown
9:35 PM 32.0 °F 24.2 °F 32.0 °F 100% 29.74 in 5.0 mi WNW 9.2 mph - N/A   Unknown
10:15 PM 32.0 °F 25.6 °F 32.0 °F 100% 29.74 in 5.0 mi WNW 6.9 mph - N/A   Unknown
10:35 PM 32.0 °F 26.4 °F 32.0 °F 100% 29.74 in 10.0 mi WNW 5.8 mph - N/A   Unknown
10:55 PM 32.0 °F 24.8 °F 32.0 °F 100% 29.74 in 10.0 mi NW 8.1 mph - N/A   Unknown
11:15 PM 32.0 °F 24.8 °F 32.0 °F 100% 29.74 in 10.0 mi WNW 8.1 mph - N/A   Unknown
11:35 PM 32.0 °F 25.6 °F 32.0 °F 100% 29.74 in 5.0 mi WNW 6.9 mph - N/A   Unknown
11:55 PM 32.0 °F 25.6 °F 32.0 °F 100% 29.74 in 4.0 mi WNW 6.9 mph - N/A   Unknown